Time,TemperatureF,DewpointF,PressureIn,WindDirection,WindDirectionDegrees,WindSpeedMPH,WindSpeedGustMPH,Humidity,HourlyPrecipIn,Conditions,Clouds,dailyrainin,SolarRadiationWatts/m^2,SoftwareType,DateUTC
2013-07-04 00:01:00,66.8,57.9,29.76,ENE,62,0.0,1.2,73,0.00,CLR,,0.00,0.0,WeatherDisplay:10.37,2013-07-04 07:01:00,
2013-07-04 00:06:00,66.5,58.0,29.76,ENE,62,0.7,2.3,74,0.00,CLR,,0.00,0.0,WeatherDisplay:10.37,2013-07-04 07:06:00,
2013-07-04 00:11:00,66.3,58.1,29.76,ENE,62,1.3,3.5,75,0.00,CLR,,0.00,0.0,WeatherDisplay:10.37,2013-07-04 07:11:00,
2013-07-04 00:16:00,66.0,57.8,29.75,ENE,62,1.3,3.5,75,0.00,CLR,,0.00,0.0,WeatherDisplay:10.37,2013-07-04 07:16:00,
2013-07-04 00:21:00,65.8,57.7,29.75,SE,129,2.3,4.6,75,0.00,CLR,,0.00,0.0,WeatherDisplay:10.37,2013-07-04 07:21:00,
2013-07-04 00:26:00,65.7,57.9,29.75,East,101,2.5,3.5,76,0.00,CLR,,0.00,0.0,WeatherDisplay:10.37,2013-07-04 07:26:00,
2013-07-04 00:31:00,65.6,57.8,29.75,East,101,0.2,3.5,76,0.00,CLR,,0.00,0.0,WeatherDisplay:10.37,2013-07-04 07:31:00,
2013-07-04 00:36:00,65.5,57.7,29.75,East,101,1.3,2.3,76,0.00,CLR,,0.00,0.0,WeatherDisplay:10.37,2013-07-04 07:36:00,
2013-07-04 00:41:00,65.4,57.6,29.75,East,101,1.1,2.3,76,0.00,CLR,,0.00,0.0,WeatherDisplay:10.37,2013-07-04 07:41:00,
2013-07-04 00:46:00,65.3,57.9,29.74,East,100,0.0,1.2,77,0.00,CLR,,0.00,0.0,WeatherDisplay:10.37,2013-07-04 07:46:00,
2013-07-04 00:51:00,65.2,57.8,29.74,East,101,0.5,1.2,77,0.00,CLR,,0.00,0.0,WeatherDisplay:10.37,2013-07-04 07:51:00,
2013-07-04 00:56:00,65.1,57.7,29.74,ESE,105,0.2,1.2,77,0.00,CLR,,0.00,0.0,WeatherDisplay:10.37,2013-07-04 07:56:00,
2013-07-04 01:01:00,65.0,57.6,29.74,ESE,105,0.0,0.0,77,0.00,CLR,,0.00,0.0,WeatherDisplay:10.37,2013-07-04 08:01:00,
2013-07-04 01:06:00,64.9,57.5,29.74,ESE,104,0.0,0.0,77,0.00,CLR,,0.00,0.0,WeatherDisplay:10.37,2013-07-04 08:06:00,
2013-07-04 01:11:00,64.9,57.9,29.74,ESE,104,1.4,2.3,78,0.00,CLR,,0.00,0.0,WeatherDisplay:10.37,2013-07-04 08:11:00,
2013-07-04 01:16:00,64.9,57.9,29.74,ESE,105,2.1,3.0,78,0.00,CLR,,0.00,0.0,WeatherDisplay:10.37,2013-07-04 08:16:00,
2013-07-04 01:21:00,64.8,58.1,29.74,ESE,104,0.9,2.0,79,0.00,CLR,,0.00,0.0,WeatherDisplay:10.37,2013-07-04 08:21:00,
2013-07-04 01:26:00,64.7,58.0,29.74,ESE,103,0.4,1.0,79,0.00,CLR,,0.00,0.0,WeatherDisplay:10.37,2013-07-04 08:26:00,
2013-07-04 01:27:00,64.7,58.0,29.74,ESE,104,0.4,2.3,79,0.00,CLR,,0.00,0.0,WeatherDisplay:10.37,2013-07-04 08:27:00,
2013-07-04 01:32:00,64.6,57.9,29.75,ESE,103,2.3,4.0,79,0.00,CLR,,0.00,0.0,WeatherDisplay:10.37,2013-07-04 08:32:00,
2013-07-04 01:37:00,64.5,58.2,29.75,East,99,1.0,3.5,80,0.00,CLR,,0.00,0.0,WeatherDisplay:10.37,2013-07-04 08:37:00,
2013-07-04 01:42:00,64.4,58.1,29.75,East,100,1.2,2.3,80,0.00,CLR,,0.00,0.0,WeatherDisplay:10.37,2013-07-04 08:42:00,
2013-07-04 01:47:00,64.3,58.0,29.75,ESE,105,2.1,3.5,80,0.00,CLR,,0.00,0.0,WeatherDisplay:10.37,2013-07-04 08:47:00,
2013-07-04 01:52:00,64.3,58.0,29.74,SE,137,2.6,3.5,80,0.00,CLR,,0.00,0.0,WeatherDisplay:10.37,2013-07-04 08:52:00,
2013-07-04 01:57:00,64.2,57.9,29.75,SE,137,0.0,2.3,80,0.00,CLR,,0.00,0.0,WeatherDisplay:10.37,2013-07-04 08:57:00,
2013-07-04 02:02:00,64.2,58.2,29.74,SE,137,0.0,0.0,81,0.00,CLR,,0.00,0.0,WeatherDisplay:10.37,2013-07-04 09:02:00,
2013-07-04 02:07:00,64.2,58.2,29.75,SE,137,0.0,0.0,81,0.00,CLR,,0.00,0.0,WeatherDisplay:10.37,2013-07-04 09:07:00,
2013-07-04 02:12:00,64.3,58.3,29.74,SE,137,1.7,2.3,81,0.00,CLR,,0.00,0.0,WeatherDisplay:10.37,2013-07-04 09:12:00,
2013-07-04 02:17:00,64.3,58.3,29.74,SE,136,2.2,3.5,81,0.00,CLR,,0.00,0.0,WeatherDisplay:10.37,2013-07-04 09:17:00,
2013-07-04 02:22:00,64.3,58.3,29.75,SE,137,0.1,1.2,81,0.00,CLR,,0.00,0.0,WeatherDisplay:10.37,2013-07-04 09:22:00,
2013-07-04 02:27:00,64.3,58.3,29.74,SE,137,0.6,2.0,81,0.00,CLR,,0.00,0.0,WeatherDisplay:10.37,2013-07-04 09:27:00,
2013-07-04 02:32:00,64.3,58.0,29.74,SE,137,0.0,0.0,80,0.00,CLR,,0.00,0.0,WeatherDisplay:10.37,2013-07-04 09:32:00,
2013-07-04 02:37:00,64.3,58.0,29.74,SE,137,0.0,0.0,80,0.00,CLR,,0.00,0.0,WeatherDisplay:10.37,2013-07-04 09:37:00,
2013-07-04 02:42:00,64.3,58.0,29.74,SE,137,0.0,0.0,80,0.00,CLR,,0.00,0.0,WeatherDisplay:10.37,2013-07-04 09:42:00,
2013-07-04 02:47:00,64.3,58.0,29.74,SE,137,0.4,1.2,80,0.00,CLR,,0.00,0.0,WeatherDisplay:10.37,2013-07-04 09:47:00,
2013-07-04 02:52:00,64.5,58.2,29.74,SE,137,0.5,1.2,80,0.00,CLR,,0.00,0.0,WeatherDisplay:10.37,2013-07-04 09:52:00,
2013-07-04 02:57:00,64.7,58.4,29.74,SE,137,0.4,1.2,80,0.00,CLR,,0.00,0.0,WeatherDisplay:10.37,2013-07-04 09:57:00,
2013-07-04 03:02:00,64.8,58.1,29.74,SE,137,0.6,2.3,79,0.00,CLR,,0.00,0.0,WeatherDisplay:10.37,2013-07-04 10:02:00,
2013-07-04 03:07:00,64.9,58.2,29.74,SE,137,0.3,1.2,79,0.00,CLR,,0.00,0.0,WeatherDisplay:10.37,2013-07-04 10:07:00,
2013-07-04 03:12:00,64.9,58.2,29.74,SE,137,1.5,2.3,79,0.00,CLR,,0.00,0.0,WeatherDisplay:10.37,2013-07-04 10:12:00,
2013-07-04 03:17:00,64.9,58.2,29.73,SE,146,6.2,7.0,79,0.00,CLR,,0.00,0.0,WeatherDisplay:10.37,2013-07-04 10:17:00,
2013-07-04 03:22:00,65.1,58.4,29.72,SSE,147,6.0,7.0,79,0.00,CLR,,0.00,0.0,WeatherDisplay:10.37,2013-07-04 10:22:00,
2013-07-04 03:27:00,65.7,58.3,29.72,SSE,152,2.6,3.5,77,0.00,CLR,,0.00,0.0,WeatherDisplay:10.37,2013-07-04 10:27:00,
2013-07-04 03:32:00,66.1,58.3,29.72,SSE,151,3.4,3.5,76,0.00,CLR,,0.00,0.0,WeatherDisplay:10.37,2013-07-04 10:32:00,
2013-07-04 03:37:00,66.9,58.3,29.72,SSE,151,3.4,3.5,74,0.00,CLR,,0.00,0.0,WeatherDisplay:10.37,2013-07-04 10:37:00,
2013-07-04 03:42:00,67.5,58.5,29.72,SE,134,3.7,4.6,73,0.00,CLR,,0.00,0.0,WeatherDisplay:10.37,2013-07-04 10:42:00,
2013-07-04 03:47:00,67.7,58.7,29.71,ESE,119,2.6,3.5,73,0.00,CLR,,0.00,0.0,WeatherDisplay:10.37,2013-07-04 10:47:00,
2013-07-04 03:52:00,67.9,58.9,29.71,ESE,110,2.5,3.5,73,0.00,CLR,,0.00,0.0,WeatherDisplay:10.37,2013-07-04 10:52:00,
2013-07-04 03:57:00,68.3,58.9,29.72,ESE,104,0.0,1.2,72,0.00,CLR,,0.00,0.0,WeatherDisplay:10.37,2013-07-04 10:57:00,
2013-07-04 04:02:00,68.4,58.6,29.72,ESE,104,0.3,1.2,71,0.00,CLR,,0.00,0.0,WeatherDisplay:10.37,2013-07-04 11:02:00,
2013-07-04 04:07:00,68.4,58.6,29.72,ESE,104,1.5,2.3,71,0.00,CLR,,0.00,0.0,WeatherDisplay:10.37,2013-07-04 11:07:00,
2013-07-04 04:12:00,68.5,59.1,29.72,ESE,104,0.1,1.0,72,0.00,CLR,,0.00,0.0,WeatherDisplay:10.37,2013-07-04 11:12:00,
2013-07-04 04:17:00,68.6,58.8,29.72,NW,314,3.1,3.5,71,0.00,CLR,,0.00,0.0,WeatherDisplay:10.37,2013-07-04 11:17:00,
2013-07-04 04:22:00,68.5,58.7,29.72,West,266,0.7,2.3,71,0.00,CLR,,0.00,0.0,WeatherDisplay:10.37,2013-07-04 11:22:00,
2013-07-04 04:27:00,68.3,58.9,29.72,NW,316,2.5,3.5,72,0.00,CLR,,0.00,0.0,WeatherDisplay:10.37,2013-07-04 11:27:00,
2013-07-04 04:32:00,68.0,59.0,29.72,NW,309,4.7,6.0,73,0.00,CLR,,0.00,0.0,WeatherDisplay:10.37,2013-07-04 11:32:00,
2013-07-04 04:37:00,67.3,58.3,29.72,West,263,4.3,6.9,73,0.00,CLR,,0.00,0.0,WeatherDisplay:10.37,2013-07-04 11:37:00,
2013-07-04 04:42:00,66.9,58.3,29.71,SW,234,3.5,8.1,74,0.00,CLR,,0.00,0.0,WeatherDisplay:10.37,2013-07-04 11:42:00,
2013-07-04 04:47:00,66.7,58.5,29.71,NW,318,0.4,1.2,75,0.00,CLR,,0.00,0.0,WeatherDisplay:10.37,2013-07-04 11:47:00,
2013-07-04 04:52:00,66.7,58.5,29.72,NW,318,1.6,3.0,75,0.00,CLR,,0.00,0.0,WeatherDisplay:10.37,2013-07-04 11:52:00,
2013-07-04 04:57:00,66.5,58.3,29.72,WNW,295,3.8,4.6,75,0.00,CLR,,0.00,0.0,WeatherDisplay:10.37,2013-07-04 11:57:00,
2013-07-04 05:02:00,66.2,58.4,29.72,WNW,285,1.2,3.5,76,0.00,CLR,,0.00,0.0,WeatherDisplay:10.37,2013-07-04 12:02:00,
2013-07-04 05:07:00,66.1,58.3,29.71,South,175,4.5,5.0,76,0.00,CLR,,0.00,0.0,WeatherDisplay:10.37,2013-07-04 12:07:00,
2013-07-04 05:12:00,66.0,58.2,29.71,SSE,156,3.5,4.6,76,0.00,CLR,,0.00,0.0,WeatherDisplay:10.37,2013-07-04 12:12:00,
2013-07-04 05:17:00,66.0,58.6,29.72,SSE,156,0.0,1.2,77,0.00,CLR,,0.00,0.0,WeatherDisplay:10.37,2013-07-04 12:17:00,
2013-07-04 05:22:00,65.9,58.5,29.72,SSE,156,0.1,1.0,77,0.00,CLR,,0.00,0.0,WeatherDisplay:10.37,2013-07-04 12:22:00,
2013-07-04 05:27:00,65.8,58.4,29.72,SSE,156,0.1,1.2,77,0.00,CLR,,0.00,0.0,WeatherDisplay:10.37,2013-07-04 12:27:00,
2013-07-04 05:32:00,65.7,58.3,29.72,West,259,4.4,6.0,77,0.00,CLR,,0.00,0.0,WeatherDisplay:10.37,2013-07-04 12:32:00,
2013-07-04 05:37:00,65.6,58.6,29.72,West,267,4.0,4.6,78,0.00,CLR,,0.00,0.0,WeatherDisplay:10.37,2013-07-04 12:37:00,
2013-07-04 05:42:00,65.8,58.4,29.71,WSW,251,5.2,5.8,77,0.00,CLR,,0.00,0.0,WeatherDisplay:10.37,2013-07-04 12:42:00,
2013-07-04 05:47:00,66.0,58.6,29.72,WSW,251,1.4,3.5,77,0.00,CLR,,0.00,0.0,WeatherDisplay:10.37,2013-07-04 12:47:00,
2013-07-04 05:52:00,66.1,58.7,29.72,WSW,251,0.2,1.0,77,0.00,CLR,,0.00,0.0,WeatherDisplay:10.37,2013-07-04 12:52:00,
2013-07-04 05:57:00,66.1,58.7,29.71,SSE,156,3.4,4.6,77,0.00,CLR,,0.00,0.0,WeatherDisplay:10.37,2013-07-04 12:57:00,
2013-07-04 06:02:00,66.2,58.8,29.72,SE,126,0.3,1.0,77,0.00,CLR,,0.00,5.0,WeatherDisplay:10.37,2013-07-04 13:02:00,
2013-07-04 06:07:00,66.3,58.5,29.72,NNW,334,1.8,3.5,76,0.00,CLR,,0.00,9.0,WeatherDisplay:10.37,2013-07-04 13:07:00,
2013-07-04 06:12:00,66.3,58.5,29.72,NW,324,2.4,3.5,76,0.00,CLR,,0.00,12.0,WeatherDisplay:10.37,2013-07-04 13:12:00,
2013-07-04 06:17:00,66.2,58.8,29.73,NW,321,2.8,3.5,77,0.00,CLR,,0.00,18.0,WeatherDisplay:10.37,2013-07-04 13:17:00,
2013-07-04 06:22:00,66.0,58.9,29.72,West,275,3.3,3.5,78,0.00,CLR,,0.00,23.0,WeatherDisplay:10.37,2013-07-04 13:22:00,
2013-07-04 06:27:00,65.8,58.7,29.73,WSW,251,1.6,3.5,78,0.00,CLR,,0.00,30.0,WeatherDisplay:10.37,2013-07-04 13:27:00,
2013-07-04 06:28:00,65.8,58.7,29.73,WSW,251,1.8,2.3,78,0.00,CLR,,0.00,33.0,WeatherDisplay:10.37,2013-07-04 13:28:00,
2013-07-04 06:33:00,65.8,58.7,29.73,WSW,252,0.0,0.0,78,0.00,CLR,,0.00,40.0,WeatherDisplay:10.37,2013-07-04 13:33:00,
2013-07-04 06:38:00,65.8,58.7,29.73,WSW,253,0.0,0.0,78,0.00,CLR,,0.00,44.0,WeatherDisplay:10.37,2013-07-04 13:38:00,
2013-07-04 06:43:00,65.9,59.2,29.73,WSW,252,0.1,1.2,79,0.00,CLR,,0.00,49.0,WeatherDisplay:10.37,2013-07-04 13:43:00,
2013-07-04 06:48:00,66.1,59.0,29.73,WSW,251,0.0,1.2,78,0.00,CLR,,0.00,54.0,WeatherDisplay:10.37,2013-07-04 13:48:00,
2013-07-04 06:53:00,66.2,59.1,29.73,WSW,253,0.7,3.5,78,0.00,CLR,,0.00,58.0,WeatherDisplay:10.37,2013-07-04 13:53:00,
2013-07-04 06:58:00,66.4,59.7,29.73,WSW,253,0.7,1.2,79,0.00,CLR,,0.00,58.0,WeatherDisplay:10.37,2013-07-04 13:58:00,
2013-07-04 07:03:00,66.6,59.5,29.73,WSW,253,1.1,2.3,78,0.00,CLR,,0.00,58.0,WeatherDisplay:10.37,2013-07-04 14:03:00,
2013-07-04 07:08:00,66.8,60.1,29.73,ESE,114,0.2,3.0,79,0.00,CLR,,0.00,58.0,WeatherDisplay:10.37,2013-07-04 14:08:00,
2013-07-04 07:13:00,67.2,60.5,29.73,ESE,104,2.1,3.5,79,0.00,CLR,,0.00,49.0,WeatherDisplay:10.37,2013-07-04 14:13:00,
2013-07-04 07:18:00,67.4,61.0,29.73,East,93,1.9,3.5,80,0.00,CLR,,0.00,46.0,WeatherDisplay:10.37,2013-07-04 14:18:00,
2013-07-04 07:23:00,67.6,61.6,29.74,East,89,1.2,2.3,81,0.00,CLR,,0.00,46.0,WeatherDisplay:10.37,2013-07-04 14:23:00,
2013-07-04 07:28:00,67.7,61.7,29.74,East,82,2.3,4.0,81,0.00,CLR,,0.00,58.0,WeatherDisplay:10.37,2013-07-04 14:28:00,
2013-07-04 07:33:00,67.8,62.1,29.74,East,81,1.3,3.5,82,0.00,CLR,,0.00,65.0,WeatherDisplay:10.37,2013-07-04 14:33:00,
2013-07-04 07:38:00,68.0,61.9,29.74,East,82,0.5,2.3,81,0.00,CLR,,0.00,65.0,WeatherDisplay:10.37,2013-07-04 14:38:00,
2013-07-04 07:43:00,68.2,62.1,29.74,East,81,0.0,0.0,81,0.00,CLR,,0.00,167.0,WeatherDisplay:10.37,2013-07-04 14:43:00,
2013-07-04 07:48:00,68.5,62.1,29.74,East,82,1.4,3.5,80,0.00,CLR,,0.00,220.0,WeatherDisplay:10.37,2013-07-04 14:48:00,
2013-07-04 07:53:00,69.0,62.2,29.74,East,81,2.5,3.5,79,0.00,CLR,,0.00,269.0,WeatherDisplay:10.37,2013-07-04 14:53:00,
2013-07-04 07:58:00,69.5,62.7,29.74,East,82,1.0,3.5,79,0.00,CLR,,0.00,308.0,WeatherDisplay:10.37,2013-07-04 14:58:00,
2013-07-04 08:03:00,70.1,62.9,29.73,East,82,1.4,2.3,78,0.00,CLR,,0.00,243.0,WeatherDisplay:10.37,2013-07-04 15:03:00,
2013-07-04 08:08:00,70.8,63.2,29.74,East,82,0.4,1.0,77,0.00,CLR,,0.00,97.0,WeatherDisplay:10.37,2013-07-04 15:08:00,
2013-07-04 08:13:00,71.5,63.2,29.73,East,82,1.0,2.0,75,0.00,CLR,,0.00,232.0,WeatherDisplay:10.37,2013-07-04 15:13:00,
2013-07-04 08:18:00,72.4,63.6,29.74,East,86,3.0,4.6,74,0.00,CLR,,0.00,158.0,WeatherDisplay:10.37,2013-07-04 15:18:00,
2013-07-04 08:23:00,72.8,64.0,29.74,East,90,3.5,5.8,74,0.00,CLR,,0.00,88.0,WeatherDisplay:10.37,2013-07-04 15:23:00,
2013-07-04 08:28:00,73.3,64.1,29.74,NNE,20,2.4,4.6,73,0.00,CLR,,0.00,58.0,WeatherDisplay:10.37,2013-07-04 15:28:00,
2013-07-04 08:33:00,73.7,64.1,29.74,North,357,2.4,3.5,72,0.00,CLR,,0.00,58.0,WeatherDisplay:10.37,2013-07-04 15:33:00,
2013-07-04 08:38:00,74.2,64.2,29.74,North,1,1.7,3.5,71,0.00,CLR,,0.00,63.0,WeatherDisplay:10.37,2013-07-04 15:38:00,
2013-07-04 08:43:00,74.8,64.4,29.75,NNE,12,3.0,3.5,70,0.00,CLR,,0.00,111.0,WeatherDisplay:10.37,2013-07-04 15:43:00,
2013-07-04 08:48:00,75.4,64.5,29.75,NE,37,2.5,4.0,69,0.00,CLR,,0.00,250.0,WeatherDisplay:10.37,2013-07-04 15:48:00,
2013-07-04 08:53:00,76.0,64.2,29.75,North,359,2.0,3.5,67,0.00,CLR,,0.00,378.0,WeatherDisplay:10.37,2013-07-04 15:53:00,
2013-07-04 08:58:00,76.4,64.2,29.75,North,351,1.1,3.5,66,0.00,CLR,,0.00,429.0,WeatherDisplay:10.37,2013-07-04 15:58:00,
2013-07-04 09:03:00,76.9,64.2,29.75,North,2,1.0,3.5,65,0.00,CLR,,0.00,367.0,WeatherDisplay:10.37,2013-07-04 16:03:00,
2013-07-04 09:08:00,77.2,64.1,29.75,NW,314,2.7,3.5,64,0.00,CLR,,0.00,260.0,WeatherDisplay:10.37,2013-07-04 16:08:00,
2013-07-04 09:13:00,76.7,64.0,29.75,WNW,299,1.0,2.3,65,0.00,CLR,,0.00,151.0,WeatherDisplay:10.37,2013-07-04 16:13:00,
2013-07-04 09:18:00,76.7,64.0,29.75,WNW,303,0.5,1.2,65,0.00,CLR,,0.00,83.0,WeatherDisplay:10.37,2013-07-04 16:18:00,
2013-07-04 09:23:00,77.2,64.5,29.75,North,349,1.9,3.5,65,0.00,CLR,,0.00,67.0,WeatherDisplay:10.37,2013-07-04 16:23:00,
2013-07-04 09:28:00,77.8,64.6,29.75,North,353,0.3,3.0,64,0.00,CLR,,0.00,69.0,WeatherDisplay:10.37,2013-07-04 16:28:00,
2013-07-04 09:33:00,78.2,64.6,29.74,North,353,0.9,2.3,63,0.00,CLR,,0.00,69.0,WeatherDisplay:10.37,2013-07-04 16:33:00,
2013-07-04 09:38:00,78.8,64.7,29.74,NE,37,1.8,3.0,62,0.00,CLR,,0.00,70.0,WeatherDisplay:10.37,2013-07-04 16:38:00,
2013-07-04 09:43:00,79.4,65.2,29.75,NNE,23,1.0,3.5,62,0.00,CLR,,0.00,72.0,WeatherDisplay:10.37,2013-07-04 16:43:00,
2013-07-04 09:48:00,80.1,65.4,29.75,North,357,0.6,2.3,61,0.00,CLR,,0.00,74.0,WeatherDisplay:10.37,2013-07-04 16:48:00,
2013-07-04 09:53:00,80.7,65.0,29.75,NNE,33,0.3,1.2,59,0.00,CLR,,0.00,74.0,WeatherDisplay:10.37,2013-07-04 16:53:00,
2013-07-04 09:58:00,81.0,65.3,29.75,NNW,337,0.8,2.3,59,0.00,CLR,,0.00,74.0,WeatherDisplay:10.37,2013-07-04 16:58:00,
2013-07-04 10:03:00,81.4,65.7,29.74,NNW,339,1.0,1.2,59,0.00,CLR,,0.00,74.0,WeatherDisplay:10.37,2013-07-04 17:03:00,
2013-07-04 10:08:00,81.6,65.4,29.74,WNW,293,0.2,2.3,58,0.00,CLR,,0.00,74.0,WeatherDisplay:10.37,2013-07-04 17:08:00,
2013-07-04 10:13:00,82.4,66.1,29.75,North,1,1.3,3.5,58,0.00,CLR,,0.00,74.0,WeatherDisplay:10.37,2013-07-04 17:13:00,
2013-07-04 10:18:00,83.4,66.6,29.74,NNE,22,2.8,2.8,57,0.00,CLR,,0.00,74.0,WeatherDisplay:10.37,2013-07-04 17:18:00,
2013-07-04 10:23:00,84.5,66.6,29.74,ENE,68,4.0,5.8,55,0.00,CLR,,0.00,72.0,WeatherDisplay:10.37,2013-07-04 17:23:00,
2013-07-04 10:28:00,85.0,67.0,29.74,NNE,18,4.1,4.6,55,0.00,CLR,,0.00,72.0,WeatherDisplay:10.37,2013-07-04 17:28:00,
2013-07-04 10:33:00,85.5,67.0,29.75,NNE,33,0.7,3.5,54,0.00,CLR,,0.00,74.0,WeatherDisplay:10.37,2013-07-04 17:33:00,
2013-07-04 10:38:00,86.1,67.0,29.75,North,11,0.7,3.5,53,0.00,CLR,,0.00,74.0,WeatherDisplay:10.37,2013-07-04 17:38:00,
2013-07-04 10:43:00,86.7,67.0,29.74,North,359,1.0,2.3,52,0.00,CLR,,0.00,76.0,WeatherDisplay:10.37,2013-07-04 17:43:00,
2013-07-04 10:48:00,87.3,67.0,29.75,NNE,17,1.2,4.6,51,0.00,CLR,,0.00,77.0,WeatherDisplay:10.37,2013-07-04 17:48:00,
2013-07-04 10:53:00,87.7,66.8,29.75,North,354,2.7,5.8,50,0.00,CLR,,0.00,125.0,WeatherDisplay:10.37,2013-07-04 17:53:00,
2013-07-04 10:58:00,87.8,66.8,29.75,NNE,12,1.8,4.0,50,0.00,CLR,,0.00,301.0,WeatherDisplay:10.37,2013-07-04 17:58:00,
2013-07-04 11:03:00,88.3,66.7,29.75,NNE,30,3.4,5.0,49,0.00,CLR,,0.00,566.0,WeatherDisplay:10.37,2013-07-04 18:03:00,
2013-07-04 11:08:00,88.8,67.2,29.75,North,350,2.2,4.0,49,0.00,CLR,,0.00,770.0,WeatherDisplay:10.37,2013-07-04 18:08:00,
2013-07-04 11:13:00,89.2,66.9,29.75,NE,35,3.0,4.6,48,0.00,CLR,,0.00,831.0,WeatherDisplay:10.37,2013-07-04 18:13:00,
2013-07-04 11:18:00,89.3,67.0,29.74,North,1,2.1,3.5,48,0.00,CLR,,0.00,838.0,WeatherDisplay:10.37,2013-07-04 18:18:00,
2013-07-04 11:23:00,89.4,67.1,29.75,North,5,2.2,3.5,48,0.00,CLR,,0.00,846.0,WeatherDisplay:10.37,2013-07-04 18:23:00,
2013-07-04 11:28:00,89.9,67.6,29.74,WSW,251,1.5,3.5,48,0.00,CLR,,0.00,84.0,WeatherDisplay:10.37,2013-07-04 18:28:00,
2013-07-04 11:33:00,90.5,67.5,29.74,NNE,14,2.1,3.5,47,0.00,CLR,,0.00,262.0,WeatherDisplay:10.37,2013-07-04 18:33:00,
2013-07-04 11:38:00,90.9,67.3,29.74,NNW,328,2.9,3.5,46,0.00,CLR,,0.00,870.0,WeatherDisplay:10.37,2013-07-04 18:38:00,
2013-07-04 11:43:00,91.1,67.4,29.74,NNE,25,0.8,3.5,46,0.00,CLR,,0.00,881.0,WeatherDisplay:10.37,2013-07-04 18:43:00,
2013-07-04 11:48:00,91.1,67.4,29.75,NNE,30,1.6,2.3,46,0.00,CLR,,0.00,889.0,WeatherDisplay:10.37,2013-07-04 18:48:00,
2013-07-04 11:53:00,91.3,67.0,29.75,North,353,1.0,4.6,45,0.00,CLR,,0.00,896.0,WeatherDisplay:10.37,2013-07-04 18:53:00,
2013-07-04 11:58:00,91.5,67.2,29.75,NE,44,2.6,5.0,45,0.00,CLR,,0.00,904.0,WeatherDisplay:10.37,2013-07-04 18:58:00,
2013-07-04 12:03:00,91.5,66.5,29.75,NNW,329,2.9,3.5,44,0.00,CLR,,0.00,909.0,WeatherDisplay:10.37,2013-07-04 19:03:00,
2013-07-04 12:08:00,91.4,66.4,29.75,NNW,348,1.1,3.5,44,0.00,CLR,,0.00,914.0,WeatherDisplay:10.37,2013-07-04 19:08:00,
2013-07-04 12:13:00,91.6,65.9,29.75,West,259,3.7,5.0,43,0.00,CLR,,0.00,921.0,WeatherDisplay:10.37,2013-07-04 19:13:00,
2013-07-04 12:18:00,91.5,65.8,29.75,WNW,292,3.9,5.8,43,0.00,CLR,,0.00,925.0,WeatherDisplay:10.37,2013-07-04 19:18:00,
2013-07-04 12:23:00,91.9,66.2,29.75,NNE,30,1.6,4.6,43,0.00,CLR,,0.00,926.0,WeatherDisplay:10.37,2013-07-04 19:23:00,
2013-07-04 12:28:00,92.2,66.5,29.75,NNW,328,2.6,3.5,43,0.00,CLR,,0.00,930.0,WeatherDisplay:10.37,2013-07-04 19:28:00,
2013-07-04 12:33:00,92.3,65.9,29.75,North,10,1.5,3.5,42,0.00,CLR,,0.00,935.0,WeatherDisplay:10.37,2013-07-04 19:33:00,
2013-07-04 12:38:00,92.1,66.4,29.75,WNW,303,2.9,4.0,43,0.00,CLR,,0.00,939.0,WeatherDisplay:10.37,2013-07-04 19:38:00,
2013-07-04 12:43:00,92.2,66.5,29.75,North,1,2.0,4.6,43,0.00,CLR,,0.00,940.0,WeatherDisplay:10.37,2013-07-04 19:43:00,
2013-07-04 12:48:00,92.7,66.9,29.74,NW,309,2.0,3.5,43,0.00,CLR,,0.00,942.0,WeatherDisplay:10.37,2013-07-04 19:48:00,
2013-07-04 12:53:00,93.4,66.9,29.74,WNW,299,0.9,3.5,42,0.00,CLR,,0.00,940.0,WeatherDisplay:10.37,2013-07-04 19:53:00,
2013-07-04 12:58:00,93.7,66.4,29.74,NW,305,2.8,3.5,41,0.00,CLR,,0.00,946.0,WeatherDisplay:10.37,2013-07-04 19:58:00,
2013-07-04 13:03:00,94.0,66.7,29.74,NNW,348,1.5,3.5,41,0.00,CLR,,0.00,953.0,WeatherDisplay:10.37,2013-07-04 20:03:00,
2013-07-04 13:08:00,94.7,66.6,29.74,NNW,337,1.5,3.5,40,0.00,CLR,,0.00,947.0,WeatherDisplay:10.37,2013-07-04 20:08:00,
2013-07-04 13:13:00,95.1,66.2,29.74,North,1,2.2,4.6,39,0.00,CLR,,0.00,951.0,WeatherDisplay:10.37,2013-07-04 20:13:00,
2013-07-04 13:18:00,95.6,65.9,29.73,North,6,1.7,3.5,38,0.00,CLR,,0.00,951.0,WeatherDisplay:10.37,2013-07-04 20:18:00,
2013-07-04 13:23:00,96.0,66.3,29.73,North,6,3.4,5.8,38,0.00,CLR,,0.00,949.0,WeatherDisplay:10.37,2013-07-04 20:23:00,
2013-07-04 13:28:00,96.1,65.6,29.73,North,9,3.6,4.0,37,0.00,CLR,,0.00,949.0,WeatherDisplay:10.37,2013-07-04 20:28:00,
2013-07-04 13:33:00,96.2,65.7,29.73,NNW,331,2.2,3.5,37,0.00,CLR,,0.00,944.0,WeatherDisplay:10.37,2013-07-04 20:33:00,
2013-07-04 13:38:00,96.5,66.0,29.73,North,2,2.5,4.6,37,0.00,CLR,,0.00,944.0,WeatherDisplay:10.37,2013-07-04 20:38:00,
2013-07-04 13:43:00,97.1,65.7,29.73,NNW,344,1.7,4.6,36,0.00,CLR,,0.00,940.0,WeatherDisplay:10.37,2013-07-04 20:43:00,
2013-07-04 13:48:00,97.5,66.1,29.73,North,6,3.2,5.0,36,0.00,CLR,,0.00,939.0,WeatherDisplay:10.37,2013-07-04 20:48:00,
2013-07-04 13:53:00,97.7,65.4,29.73,NNE,22,4.5,5.0,35,0.00,CLR,,0.00,937.0,WeatherDisplay:10.37,2013-07-04 20:53:00,
2013-07-04 13:58:00,98.0,65.7,29.72,West,262,1.1,4.6,35,0.00,CLR,,0.00,932.0,WeatherDisplay:10.37,2013-07-04 20:58:00,
2013-07-04 14:03:00,98.4,65.2,29.72,NW,318,4.1,6.9,34,0.00,CLR,,0.00,926.0,WeatherDisplay:10.37,2013-07-04 21:03:00,
2013-07-04 14:08:00,98.9,65.6,29.72,NW,311,4.5,6.9,34,0.00,CLR,,0.00,926.0,WeatherDisplay:10.37,2013-07-04 21:08:00,
2013-07-04 14:13:00,99.1,65.8,29.72,NW,324,4.0,4.6,34,0.00,CLR,,0.00,919.0,WeatherDisplay:10.37,2013-07-04 21:13:00,
2013-07-04 14:18:00,99.4,65.2,29.72,North,353,3.2,5.8,33,0.00,CLR,,0.00,918.0,WeatherDisplay:10.37,2013-07-04 21:18:00,
2013-07-04 14:23:00,99.8,65.6,29.72,NW,318,2.5,4.6,33,0.00,CLR,,0.00,914.0,WeatherDisplay:10.37,2013-07-04 21:23:00,
2013-07-04 14:28:00,100.1,65.8,29.72,WNW,299,2.6,5.8,33,0.00,CLR,,0.00,904.0,WeatherDisplay:10.37,2013-07-04 21:28:00,
2013-07-04 14:33:00,100.3,65.1,29.72,NNW,336,3.5,5.0,32,0.00,CLR,,0.00,900.0,WeatherDisplay:10.37,2013-07-04 21:33:00,
2013-07-04 14:38:00,100.3,65.1,29.71,North,5,2.8,3.5,32,0.00,CLR,,0.00,893.0,WeatherDisplay:10.37,2013-07-04 21:38:00,
2013-07-04 14:43:00,100.2,65.9,29.71,NNW,339,2.2,4.6,33,0.00,CLR,,0.00,884.0,WeatherDisplay:10.37,2013-07-04 21:43:00,
2013-07-04 14:48:00,100.1,64.9,29.71,NNE,22,3.3,5.0,32,0.00,CLR,,0.00,881.0,WeatherDisplay:10.37,2013-07-04 21:48:00,
2013-07-04 14:53:00,100.0,65.7,29.71,NNW,333,2.6,4.6,33,0.00,CLR,,0.00,870.0,WeatherDisplay:10.37,2013-07-04 21:53:00,
2013-07-04 14:58:00,100.0,65.7,29.71,North,353,3.2,4.6,33,0.00,CLR,,0.00,860.0,WeatherDisplay:10.37,2013-07-04 21:58:00,
2013-07-04 15:03:00,99.7,65.5,29.71,NNW,345,2.1,3.5,33,0.00,CLR,,0.00,856.0,WeatherDisplay:10.37,2013-07-04 22:03:00,
2013-07-04 15:08:00,99.5,65.3,29.71,NNE,25,3.1,4.6,33,0.00,CLR,,0.00,847.0,WeatherDisplay:10.37,2013-07-04 22:08:00,
2013-07-04 15:13:00,99.6,65.4,29.70,North,351,2.1,4.0,33,0.00,CLR,,0.00,840.0,WeatherDisplay:10.37,2013-07-04 22:13:00,
2013-07-04 15:18:00,99.8,65.6,29.70,North,355,1.0,3.5,33,0.00,CLR,,0.00,833.0,WeatherDisplay:10.37,2013-07-04 22:18:00,
2013-07-04 15:23:00,100.0,65.7,29.70,North,356,1.7,5.8,33,0.00,CLR,,0.00,826.0,WeatherDisplay:10.37,2013-07-04 22:23:00,
2013-07-04 15:28:00,100.3,66.0,29.70,NNW,330,1.8,8.1,33,0.00,CLR,,0.00,819.0,WeatherDisplay:10.37,2013-07-04 22:28:00,
2013-07-04 15:33:00,100.6,65.4,29.70,North,351,1.9,5.8,32,0.00,CLR,,0.00,809.0,WeatherDisplay:10.37,2013-07-04 22:33:00,
2013-07-04 15:38:00,101.0,65.7,29.70,NNE,18,2.5,3.5,32,0.00,CLR,,0.00,798.0,WeatherDisplay:10.37,2013-07-04 22:38:00,
2013-07-04 15:43:00,101.3,65.1,29.70,North,357,2.0,5.8,31,0.00,CLR,,0.00,791.0,WeatherDisplay:10.37,2013-07-04 22:43:00,
2013-07-04 15:48:00,101.5,65.2,29.69,North,349,1.1,4.6,31,0.00,CLR,,0.00,780.0,WeatherDisplay:10.37,2013-07-04 22:48:00,
2013-07-04 15:53:00,101.6,65.3,29.69,North,353,2.3,3.5,31,0.00,CLR,,0.00,768.0,WeatherDisplay:10.37,2013-07-04 22:53:00,
2013-07-04 15:58:00,101.6,65.3,29.69,NW,325,2.4,5.0,31,0.00,CLR,,0.00,759.0,WeatherDisplay:10.37,2013-07-04 22:58:00,
2013-07-04 16:03:00,101.4,66.1,29.69,NW,309,0.9,3.5,32,0.00,CLR,,0.00,745.0,WeatherDisplay:10.37,2013-07-04 23:03:00,
2013-07-04 16:08:00,101.5,66.1,29.69,NNW,328,3.2,6.0,32,0.00,CLR,,0.00,735.0,WeatherDisplay:10.37,2013-07-04 23:08:00,
2013-07-04 16:13:00,101.7,65.4,29.69,NNW,336,2.0,4.6,31,0.00,CLR,,0.00,721.0,WeatherDisplay:10.37,2013-07-04 23:13:00,
2013-07-04 16:18:00,101.8,65.5,29.68,North,10,2.6,4.6,31,0.00,CLR,,0.00,707.0,WeatherDisplay:10.37,2013-07-04 23:18:00,
2013-07-04 16:23:00,101.8,65.5,29.68,NW,325,1.7,3.5,31,0.00,CLR,,0.00,694.0,WeatherDisplay:10.37,2013-07-04 23:23:00,
2013-07-04 16:28:00,101.9,65.6,29.69,NNW,328,2.3,3.5,31,0.00,CLR,,0.00,682.0,WeatherDisplay:10.37,2013-07-04 23:28:00,
2013-07-04 16:33:00,101.7,65.4,29.68,North,6,2.4,4.6,31,0.00,CLR,,0.00,668.0,WeatherDisplay:10.37,2013-07-04 23:33:00,
2013-07-04 16:38:00,101.4,66.1,29.68,NNE,12,2.7,4.6,32,0.00,CLR,,0.00,652.0,WeatherDisplay:10.37,2013-07-04 23:38:00,
2013-07-04 16:43:00,101.3,65.1,29.68,NNW,330,1.9,5.8,31,0.00,CLR,,0.00,642.0,WeatherDisplay:10.37,2013-07-04 23:43:00,
2013-07-04 16:48:00,101.3,66.0,29.68,WNW,301,2.6,5.0,32,0.00,CLR,,0.00,628.0,WeatherDisplay:10.37,2013-07-04 23:48:00,
2013-07-04 16:53:00,101.4,65.1,29.68,NW,320,4.1,6.0,31,0.00,CLR,,0.00,610.0,WeatherDisplay:10.37,2013-07-04 23:53:00,
2013-07-04 16:58:00,101.3,65.1,29.68,NNW,340,2.0,3.5,31,0.00,CLR,,0.00,599.0,WeatherDisplay:10.37,2013-07-04 23:58:00,
2013-07-04 17:03:00,101.2,64.0,29.68,West,273,2.7,4.6,30,0.00,CLR,,0.00,584.0,WeatherDisplay:10.37,2013-07-05 00:03:00,
2013-07-04 17:08:00,101.3,64.1,29.68,NNW,329,4.2,6.9,30,0.00,CLR,,0.00,570.0,WeatherDisplay:10.37,2013-07-05 00:08:00,
2013-07-04 17:13:00,101.3,61.1,29.68,WNW,286,8.3,10.4,27,0.00,CLR,,0.00,554.0,WeatherDisplay:10.37,2013-07-05 00:13:00,
2013-07-04 17:18:00,100.9,60.8,29.68,West,270,11.1,12.7,27,0.00,CLR,,0.00,538.0,WeatherDisplay:10.37,2013-07-05 00:18:00,
2013-07-04 17:23:00,99.8,60.9,29.68,NW,318,9.3,12.0,28,0.00,CLR,,0.00,522.0,WeatherDisplay:10.37,2013-07-05 00:23:00,
2013-07-04 17:28:00,99.1,60.3,29.67,West,278,9.5,11.5,28,0.00,CLR,,0.00,504.0,WeatherDisplay:10.37,2013-07-05 00:28:00,
2013-07-04 17:33:00,98.5,60.8,29.67,West,281,9.3,12.7,29,0.00,CLR,,0.00,489.0,WeatherDisplay:10.37,2013-07-05 00:33:00,
2013-07-04 17:38:00,98.4,59.7,29.67,NW,316,9.5,11.5,28,0.00,CLR,,0.00,476.0,WeatherDisplay:10.37,2013-07-05 00:38:00,
2013-07-04 17:43:00,98.6,59.9,29.67,WNW,291,7.9,9.2,28,0.00,CLR,,0.00,461.0,WeatherDisplay:10.37,2013-07-05 00:43:00,
2013-07-04 17:48:00,98.7,59.9,29.67,WNW,282,9.0,9.2,28,0.00,CLR,,0.00,445.0,WeatherDisplay:10.37,2013-07-05 00:48:00,
2013-07-04 17:53:00,98.2,58.5,29.67,WNW,293,8.4,11.5,27,0.00,CLR,,0.00,431.0,WeatherDisplay:10.37,2013-07-05 00:53:00,
2013-07-04 17:58:00,97.1,58.6,29.67,NW,318,7.5,11.5,28,0.00,CLR,,0.00,415.0,WeatherDisplay:10.37,2013-07-05 00:58:00,
2013-07-04 18:03:00,96.5,58.1,29.67,WNW,284,9.5,12.7,28,0.00,CLR,,0.00,401.0,WeatherDisplay:10.37,2013-07-05 01:03:00,
2013-07-04 18:08:00,96.0,57.6,29.67,West,272,9.4,11.5,28,0.00,CLR,,0.00,385.0,WeatherDisplay:10.37,2013-07-05 01:08:00,
2013-07-04 18:13:00,95.7,58.4,29.67,WNW,296,5.1,9.2,29,0.00,CLR,,0.00,373.0,WeatherDisplay:10.37,2013-07-05 01:13:00,
2013-07-04 18:18:00,95.8,56.5,29.67,WNW,301,8.1,10.4,27,0.00,CLR,,0.00,353.0,WeatherDisplay:10.37,2013-07-05 01:18:00,
2013-07-04 18:23:00,95.6,56.3,29.67,NW,309,6.8,11.5,27,0.00,CLR,,0.00,336.0,WeatherDisplay:10.37,2013-07-05 01:23:00,
2013-07-04 18:28:00,95.4,55.1,29.67,West,264,6.4,10.4,26,0.00,CLR,,0.00,320.0,WeatherDisplay:10.37,2013-07-05 01:28:00,
2013-07-04 18:33:00,94.9,54.7,29.67,WNW,285,8.7,10.4,26,0.00,CLR,,0.00,306.0,WeatherDisplay:10.37,2013-07-05 01:33:00,
2013-07-04 18:38:00,94.6,55.4,29.67,WNW,282,6.4,8.0,27,0.00,CLR,,0.00,290.0,WeatherDisplay:10.37,2013-07-05 01:38:00,
2013-07-04 18:43:00,94.7,54.5,29.67,West,278,6.1,8.1,26,0.00,CLR,,0.00,276.0,WeatherDisplay:10.37,2013-07-05 01:43:00,
2013-07-04 18:48:00,94.7,54.5,29.67,West,266,5.1,8.1,26,0.00,CLR,,0.00,262.0,WeatherDisplay:10.37,2013-07-05 01:48:00,
2013-07-04 18:53:00,94.7,54.5,29.67,WNW,293,5.5,6.9,26,0.00,CLR,,0.00,244.0,WeatherDisplay:10.37,2013-07-05 01:53:00,
2013-07-04 18:58:00,94.9,54.7,29.67,North,351,3.8,4.6,26,0.00,CLR,,0.00,229.0,WeatherDisplay:10.37,2013-07-05 01:58:00,
2013-07-04 19:03:00,95.0,52.6,29.67,NW,314,3.4,4.6,24,0.00,CLR,,0.00,213.0,WeatherDisplay:10.37,2013-07-05 02:03:00,
2013-07-04 19:08:00,94.9,52.5,29.67,NW,324,2.0,3.5,24,0.00,CLR,,0.00,195.0,WeatherDisplay:10.37,2013-07-05 02:08:00,
2013-07-04 19:13:00,94.7,52.3,29.67,NW,325,1.2,3.5,24,0.00,CLR,,0.00,176.0,WeatherDisplay:10.37,2013-07-05 02:13:00,
2013-07-04 19:18:00,94.1,51.8,29.67,North,1,2.6,3.0,24,0.00,CLR,,0.00,160.0,WeatherDisplay:10.37,2013-07-05 02:18:00,
2013-07-04 19:23:00,93.7,51.5,29.68,North,349,2.1,4.6,24,0.00,CLR,,0.00,141.0,WeatherDisplay:10.37,2013-07-05 02:23:00,
2013-07-04 19:28:00,93.3,51.1,29.68,NNW,338,1.6,2.3,24,0.00,CLR,,0.00,123.0,WeatherDisplay:10.37,2013-07-05 02:28:00,
2013-07-04 19:33:00,92.8,50.7,29.68,NW,325,0.7,2.3,24,0.00,CLR,,0.00,105.0,WeatherDisplay:10.37,2013-07-05 02:33:00,
2013-07-04 19:38:00,92.1,51.2,29.68,NW,325,2.0,3.5,25,0.00,CLR,,0.00,90.0,WeatherDisplay:10.37,2013-07-05 02:38:00,
2013-07-04 19:43:00,91.1,51.4,29.68,WNW,294,2.9,4.6,26,0.00,CLR,,0.00,69.0,WeatherDisplay:10.37,2013-07-05 02:43:00,
2013-07-04 19:48:00,90.3,50.8,29.69,NNW,330,0.5,3.5,26,0.00,CLR,,0.00,32.0,WeatherDisplay:10.37,2013-07-05 02:48:00,
2013-07-04 19:53:00,89.5,51.1,29.69,West,273,1.1,3.5,27,0.00,CLR,,0.00,28.0,WeatherDisplay:10.37,2013-07-05 02:53:00,
2013-07-04 19:58:00,88.7,51.4,29.69,West,274,0.1,1.2,28,0.00,CLR,,0.00,25.0,WeatherDisplay:10.37,2013-07-05 02:58:00,
2013-07-04 20:03:00,88.0,50.8,29.69,West,274,1.0,2.3,28,0.00,CLR,,0.00,21.0,WeatherDisplay:10.37,2013-07-05 03:03:00,
2013-07-04 20:08:00,87.2,50.1,29.69,NNE,18,2.0,3.5,28,0.00,CLR,,0.00,18.0,WeatherDisplay:10.37,2013-07-05 03:08:00,
2013-07-04 20:13:00,86.3,51.2,29.69,NW,319,2.6,4.0,30,0.00,CLR,,0.00,16.0,WeatherDisplay:10.37,2013-07-05 03:13:00,
2013-07-04 20:18:00,85.2,52.8,29.69,NE,38,2.4,2.4,33,0.00,CLR,,0.00,12.0,WeatherDisplay:10.37,2013-07-05 03:18:00,
2013-07-04 20:23:00,84.2,53.6,29.70,NE,47,0.0,3.5,35,0.00,CLR,,0.00,9.0,WeatherDisplay:10.37,2013-07-05 03:23:00,
2013-07-04 20:28:00,83.2,54.2,29.69,NE,47,1.1,2.3,37,0.00,CLR,,0.00,7.0,WeatherDisplay:10.37,2013-07-05 03:28:00,
2013-07-04 20:33:00,82.1,54.0,29.70,ESE,110,3.7,4.0,38,0.00,CLR,,0.00,5.0,WeatherDisplay:10.37,2013-07-05 03:33:00,
2013-07-04 20:38:00,81.2,55.9,29.70,ESE,105,2.0,4.0,42,0.00,CLR,,0.00,0.0,WeatherDisplay:10.37,2013-07-05 03:38:00,
2013-07-04 20:43:00,80.2,56.9,29.70,ESE,104,1.9,3.5,45,0.00,CLR,,0.00,0.0,WeatherDisplay:10.37,2013-07-05 03:43:00,
2013-07-04 20:48:00,79.4,55.0,29.70,ESE,105,0.2,0.0,43,0.00,CLR,,0.00,0.0,WeatherDisplay:10.37,2013-07-05 03:48:00,
2013-07-04 20:53:00,78.9,56.4,29.70,ESE,104,0.2,2.3,46,0.00,CLR,,0.00,0.0,WeatherDisplay:10.37,2013-07-05 03:53:00,
2013-07-04 20:58:00,78.4,56.5,29.70,ESE,104,2.1,4.0,47,0.00,CLR,,0.00,0.0,WeatherDisplay:10.37,2013-07-05 03:58:00,
2013-07-04 21:01:00,78.0,56.7,29.71,ESE,105,2.8,4.6,48,0.00,CLR,,0.00,0.0,WeatherDisplay:10.37,2013-07-05 04:01:00,
2013-07-04 21:02:00,77.8,56.5,29.71,ESE,115,2.4,3.5,48,0.00,CLR,,0.00,0.0,WeatherDisplay:10.37,2013-07-05 04:02:00,
2013-07-04 21:07:00,76.8,56.2,29.71,ESE,116,4.2,4.6,49,0.00,CLR,,0.00,0.0,WeatherDisplay:10.37,2013-07-05 04:07:00,
2013-07-04 21:12:00,76.0,57.1,29.71,SE,128,4.2,4.6,52,0.00,CLR,,0.00,0.0,WeatherDisplay:10.37,2013-07-05 04:12:00,
2013-07-04 21:17:00,75.6,57.3,29.71,SSE,147,4.0,5.0,53,0.00,CLR,,0.00,0.0,WeatherDisplay:10.37,2013-07-05 04:17:00,
2013-07-04 21:22:00,75.3,57.0,29.71,SSE,151,3.1,4.0,53,0.00,CLR,,0.00,0.0,WeatherDisplay:10.37,2013-07-05 04:22:00,
2013-07-04 21:27:00,75.2,51.8,29.71,SSW,201,4.3,9.2,44,0.00,CLR,,0.00,0.0,WeatherDisplay:10.37,2013-07-05 04:27:00,
2013-07-04 21:32:00,75.5,55.0,29.71,South,188,6.4,8.1,49,0.00,CLR,,0.00,0.0,WeatherDisplay:10.37,2013-07-05 04:32:00,
2013-07-04 21:37:00,75.5,51.4,29.71,WSW,251,2.8,5.0,43,0.00,CLR,,0.00,0.0,WeatherDisplay:10.37,2013-07-05 04:37:00,
2013-07-04 21:42:00,76.0,47.8,29.71,WNW,289,3.8,8.1,37,0.00,CLR,,0.00,0.0,WeatherDisplay:10.37,2013-07-05 04:42:00,
2013-07-04 21:47:00,76.5,47.6,29.71,NW,310,2.9,3.5,36,0.00,CLR,,0.00,0.0,WeatherDisplay:10.37,2013-07-05 04:47:00,
2013-07-04 21:52:00,76.9,49.4,29.71,NNW,328,2.6,6.9,38,0.00,CLR,,0.00,0.0,WeatherDisplay:10.37,2013-07-05 04:52:00,
2013-07-04 21:57:00,77.0,49.4,29.72,North,349,1.8,3.0,38,0.00,CLR,,0.00,0.0,WeatherDisplay:10.37,2013-07-05 04:57:00,
2013-07-04 22:02:00,76.9,48.6,29.72,NW,320,2.5,4.6,37,0.00,CLR,,0.00,0.0,WeatherDisplay:10.37,2013-07-05 05:02:00,
2013-07-04 22:07:00,76.9,48.6,29.72,NW,322,1.8,4.6,37,0.00,CLR,,0.00,0.0,WeatherDisplay:10.37,2013-07-05 05:07:00,
2013-07-04 22:12:00,76.7,47.7,29.72,NW,305,3.8,5.8,36,0.00,CLR,,0.00,0.0,WeatherDisplay:10.37,2013-07-05 05:12:00,
2013-07-04 22:17:00,76.6,49.1,29.72,NNW,335,1.3,3.5,38,0.00,CLR,,0.00,0.0,WeatherDisplay:10.37,2013-07-05 05:17:00,
2013-07-04 22:22:00,76.4,49.6,29.72,North,353,1.3,3.5,39,0.00,CLR,,0.00,0.0,WeatherDisplay:10.37,2013-07-05 05:22:00,
2013-07-04 22:27:00,76.2,50.1,29.72,North,351,0.2,1.2,40,0.00,CLR,,0.00,0.0,WeatherDisplay:10.37,2013-07-05 05:27:00,
2013-07-04 22:32:00,75.8,49.8,29.72,NW,311,2.5,3.5,40,0.00,CLR,,0.00,0.0,WeatherDisplay:10.37,2013-07-05 05:32:00,
2013-07-04 22:37:00,75.3,48.6,29.72,WNW,302,3.8,4.6,39,0.00,CLR,,0.00,0.0,WeatherDisplay:10.37,2013-07-05 05:37:00,
2013-07-04 22:42:00,74.9,48.3,29.72,WNW,302,2.0,3.5,39,0.00,CLR,,0.00,0.0,WeatherDisplay:10.37,2013-07-05 05:42:00,
2013-07-04 22:47:00,74.3,48.4,29.72,WNW,301,0.6,2.0,40,0.00,CLR,,0.00,0.0,WeatherDisplay:10.37,2013-07-05 05:47:00,
2013-07-04 22:52:00,73.9,48.1,29.71,WNW,302,0.0,1.0,40,0.00,CLR,,0.00,0.0,WeatherDisplay:10.37,2013-07-05 05:52:00,
2013-07-04 22:57:00,73.4,47.6,29.71,WNW,302,0.3,1.2,40,0.00,CLR,,0.00,0.0,WeatherDisplay:10.37,2013-07-05 05:57:00,
2013-07-04 23:02:00,73.0,47.9,29.71,WNW,303,0.0,0.0,41,0.00,CLR,,0.00,0.0,WeatherDisplay:10.37,2013-07-05 06:02:00,
2013-07-04 23:07:00,72.6,48.2,29.71,WNW,303,0.0,0.0,42,0.00,CLR,,0.00,0.0,WeatherDisplay:10.37,2013-07-05 06:07:00,
2013-07-04 23:12:00,72.3,47.9,29.71,WNW,303,0.0,0.0,42,0.00,CLR,,0.00,0.0,WeatherDisplay:10.37,2013-07-05 06:12:00,
2013-07-04 23:17:00,72.0,48.3,29.71,WNW,303,0.0,0.0,43,0.00,CLR,,0.00,0.0,WeatherDisplay:10.37,2013-07-05 06:17:00,
2013-07-04 23:22:00,71.7,48.0,29.71,WNW,303,1.1,2.3,43,0.00,CLR,,0.00,0.0,WeatherDisplay:10.37,2013-07-05 06:22:00,
2013-07-04 23:27:00,71.3,53.3,29.71,East,99,3.3,4.0,53,0.00,CLR,,0.00,0.0,WeatherDisplay:10.37,2013-07-05 06:27:00,
2013-07-04 23:32:00,70.5,54.5,29.71,ESE,111,4.0,4.6,57,0.00,CLR,,0.00,0.0,WeatherDisplay:10.37,2013-07-05 06:32:00,
2013-07-04 23:37:00,69.9,55.4,29.71,ESE,102,3.8,4.6,60,0.00,CLR,,0.00,0.0,WeatherDisplay:10.37,2013-07-05 06:37:00,
2013-07-04 23:42:00,69.4,54.9,29.71,SE,127,3.5,4.6,60,0.00,CLR,,0.00,0.0,WeatherDisplay:10.37,2013-07-05 06:42:00,
2013-07-04 23:47:00,69.2,55.2,29.71,SE,124,4.5,4.6,61,0.00,CLR,,0.00,0.0,WeatherDisplay:10.37,2013-07-05 06:47:00,
2013-07-04 23:52:00,68.9,54.4,29.71,SE,127,3.3,4.0,60,0.00,CLR,,0.00,0.0,WeatherDisplay:10.37,2013-07-05 06:52:00,
2013-07-04 23:57:00,69.0,55.0,29.71,ESE,109,3.3,4.6,61,0.00,CLR,,0.00,0.0,WeatherDisplay:10.37,2013-07-05 06:57:00,